Weather History for Meriden, CT

Change the Weather History Date:

Monday, February 11, 2013

  Actual Average (KHVN) Record (KHVN)
Temperature  
Mean Temperature 29 °F -  
Max Temperature 42 °F 37 °F 27 °F (2014)
Min Temperature 16 °F 24 °F 6 °F (2014)
Degree Days  
Heating Degree Days 36    
Moisture  
Dew Point 31 °F    
Average Humidity 94    
Maximum Humidity 100    
Minimum Humidity 82    
Precipitation  
Precipitation 0.31 in - - ()
Sea Level Pressure  
Sea Level Pressure 29.91 in    
Wind  
Wind Speed 1 mph (South)    
Max Wind Speed 7 mph    
Max Gust Speed -    
Visibility 3 miles    
Events Fog , Rain    
Averages and records for this station are not official NWS values.
T = Trace of Precipitation, MM = Missing Value Source: NWS Daily Summary

Daily Weather History Graph

Daily Weather History Graph

Search for Another Location

Airport:

Trip Planner

Search our weather history database for the weather conditions in past years. The results will help you decide how hot, cold, wet, or windy it might be!

Date:

Astronomy

Feb. 11, 2013 Rise Set
Actual Time 6:51 AM EST 5:20 PM EST
Civil Twilight 6:22 AM EST 5:48 PM EST
Nautical Twilight 5:50 AM EST 6:21 PM EST
Astronomical Twilight 5:17 AM EST 6:53 PM EST
Moon 7:12 AM EST (2/11) 7:16 PM EST (2/11)
Length of Visible Light 11h 26m
Length of Day
10h 28m
Waxing Crescent, 3% of the Moon is Illuminated
Feb 11
Waxing Crescent
Feb 17
First Quarter
Feb 25
Full
Mar 4
Last Quarter
Mar 11
New

Hourly Weather History & Observations

Time (EST) Temp. Windchill Dew Point Humidity Pressure Visibility Wind Dir Wind Speed Gust Speed Precip Events Conditions
12:53 AM 16.0 °F - 12.0 °F 84% 30.35 in 9.0 mi Calm Calm - N/A   Clear
1:53 AM 18.0 °F - 14.0 °F 84% 30.31 in 7.0 mi Calm Calm - N/A   Clear
2:53 AM 19.0 °F - 15.1 °F 85% 30.29 in 7.0 mi Calm Calm - N/A   Scattered Clouds
3:53 AM 19.9 °F - 16.0 °F 85% 30.23 in 8.0 mi Calm Calm - N/A   Scattered Clouds
4:53 AM 21.9 °F - 17.1 °F 82% 30.25 in 8.0 mi Calm Calm - N/A   Overcast
5:53 AM 24.1 °F - 19.9 °F 84% 30.21 in 7.0 mi Calm Calm - 0.00 in   Overcast
6:53 AM 26.1 °F - 21.9 °F 84% 30.18 in 5.0 mi Calm Calm - 0.00 in   Overcast
7:10 AM 26.6 °F - 23.0 °F 86% 30.16 in 5.0 mi Calm Calm - 0.01 in Rain Light Freezing Rain
7:32 AM 28.4 °F - 24.8 °F 86% 30.15 in 5.0 mi Calm Calm - 0.01 in   Overcast
7:44 AM 28.4 °F - 26.6 °F 93% 30.13 in 4.0 mi Calm Calm - 0.02 in Rain Light Freezing Rain
7:53 AM 28.9 °F - 26.1 °F 89% 30.13 in 5.0 mi Calm Calm - 0.02 in Rain Light Freezing Rain
8:33 AM 30.2 °F - 28.4 °F 93% 30.10 in 3.0 mi Calm Calm - 0.00 in Rain Light Freezing Rain
8:40 AM 30.2 °F - 28.4 °F 93% 30.09 in 2.5 mi Calm Calm - 0.00 in Rain Light Freezing Rain
8:53 AM 32.0 °F - 30.0 °F 92% 30.08 in 2.0 mi Calm Calm - 0.00 in Rain Light Freezing Rain
9:05 AM 32.0 °F - 30.2 °F 93% 30.07 in 1.5 mi Calm Calm - 0.01 in Rain Light Freezing Rain
9:10 AM 32.0 °F - 30.2 °F 93% 30.06 in 1.5 mi Calm Calm - 0.01 in   Overcast
9:45 AM 33.8 °F - 32.0 °F 93% 30.03 in 0.8 mi Calm Calm - 0.05 in Rain Rain
9:53 AM 33.1 °F - 32.0 °F 96% 30.02 in 0.8 mi Calm Calm - 0.05 in Rain Light Rain
10:30 AM 33.8 °F - 33.8 °F 100% 29.98 in 0.2 mi Calm Calm - 0.07 in Fog , Rain Rain
10:45 AM 35.6 °F - 33.8 °F 93% 29.98 in 0.8 mi Calm Calm - 0.11 in Rain Rain
10:53 AM 35.1 °F 32.2 °F 34.0 °F 96% 29.98 in 0.5 mi WNW 3.5 mph - 0.11 in Fog , Rain Light Rain
11:50 AM 35.6 °F - 35.6 °F 100% 29.93 in 0.2 mi Calm Calm - 0.09 in Fog , Rain Rain
11:53 AM 35.1 °F - 35.1 °F 100% 29.94 in 0.2 mi Calm Calm - 0.10 in Fog , Rain Rain
12:53 PM 36.0 °F - 35.1 °F 97% 29.88 in 0.2 mi Calm Calm - 0.02 in Fog , Rain Light Rain
1:53 PM 42.1 °F 38.4 °F 41.0 °F 96% 29.81 in 0.2 mi South 5.8 mph - 0.01 in Fog Fog
2:53 PM 42.1 °F 39.2 °F 42.1 °F 100% 29.79 in 0.2 mi SSE 4.6 mph - N/A Fog Fog
3:53 PM 42.1 °F 40.2 °F 41.0 °F 96% 29.75 in 0.2 mi South 3.5 mph - N/A Fog Fog
4:53 PM 41.0 °F 36.4 °F 39.9 °F 96% 29.72 in 0.2 mi South 6.9 mph - N/A Fog Fog
5:53 PM 37.0 °F 34.5 °F 37.0 °F 100% 29.72 in 0.2 mi SSE 3.5 mph - N/A Fog Fog
6:45 PM 35.6 °F 32.8 °F 35.6 °F 100% 29.70 in 0.2 mi South 3.5 mph - N/A Fog Fog
6:53 PM 36.0 °F - 36.0 °F 100% 29.70 in 0.2 mi Calm Calm - N/A Fog Fog
7:41 PM 35.6 °F - 35.6 °F 100% 29.67 in 0.2 mi Calm Calm - N/A Fog Fog
7:53 PM 36.0 °F - 35.1 °F 97% 29.68 in 0.5 mi Calm Calm - N/A Fog Fog
8:53 PM 34.0 °F - 34.0 °F 100% 29.67 in 0.5 mi Calm Calm - N/A Fog Fog
9:06 PM 35.6 °F - 33.8 °F 93% 29.67 in 0.5 mi Calm Calm - N/A Fog Fog
9:34 PM 37.4 °F 34.9 °F 37.4 °F 100% 29.67 in 1.8 mi Variable 3.5 mph - N/A   Overcast
9:39 PM 37.4 °F 33.8 °F 37.4 °F 100% 29.67 in 3.0 mi SSE 4.6 mph - N/A   Overcast
9:42 PM 37.4 °F 32.8 °F 35.6 °F 93% 29.66 in 2.5 mi South 5.8 mph - N/A   Overcast
9:53 PM 37.9 °F 34.4 °F 37.0 °F 97% 29.67 in 4.0 mi South 4.6 mph - N/A   Overcast
10:04 PM 35.6 °F 31.7 °F 35.6 °F 100% 29.65 in 2.5 mi South 4.6 mph - N/A   Overcast
10:14 PM 35.6 °F - 35.6 °F 100% 29.65 in 1.0 mi Calm Calm - N/A   Mostly Cloudy
10:21 PM 35.6 °F - 35.6 °F 100% 29.65 in 0.5 mi Calm Calm - N/A Fog Fog
10:53 PM 36.0 °F 33.3 °F 35.1 °F 97% 29.67 in 1.0 mi WNW 3.5 mph - N/A   Mostly Cloudy
11:07 PM 37.4 °F 34.9 °F 37.4 °F 100% 29.67 in 3.0 mi NW 3.5 mph - N/A   Mostly Cloudy
11:53 PM 39.9 °F 36.7 °F 39.0 °F 97% 29.70 in 10.0 mi NW 4.6 mph - N/A   Overcast